ZL1TQN Weather Reports


Display with metric or nautical units.
time (UTC)temp
F
wind
direction
speed
MPH
gust
MPH
rain 1hr
in
rain 24hr
in
rain mn
in
humidity
%
barometer
mb
20260510185505 47 118 0.0 1.0 0.00 0.00 0.00 92 1013.4
20260510185005 47 118 0.0 1.0 0.00 0.00 0.00 92 1013.3
20260510184505 47 118 0.0 1.0 0.00 0.00 0.00 92 1013.1
20260510184005 47 118 0.0 1.0 0.00 0.00 0.00 92 1013.0
20260510183005 47 118 0.0 1.0 0.00 0.00 0.00 92 1012.8
20260510182505 47 118 0.0 1.0 0.00 0.00 0.00 92 1012.7
20260510181505 47 117 0.0 1.0 0.00 0.00 0.00 92 1012.5
20260510181005 47 118 0.0 1.0 0.00 0.00 0.00 92 1012.5
20260510180005 48 118 0.0 3.0 0.00 0.00 0.00 91 1012.1
20260510175005 48 103 0.0 1.0 0.00 0.00 0.00 91 1012.0
20260510174505 48 102 0.0 2.0 0.00 0.00 0.00 91 1011.9
20260510174005 48 103 1.0 2.0 0.00 0.00 0.00 91 1011.7
20260510173505 48 126 1.0 2.0 0.00 0.00 0.00 91 1011.5
20260510173005 48 73 0.0 2.0 0.00 0.00 0.00 91 1011.5
20260510171505 48 128 1.0 3.0 0.00 0.00 0.00 90 1011.3
20260510171005 48 120 0.0 2.0 0.00 0.00 0.00 90 1011.1
20260510170005 48 142 1.0 1.0 0.00 0.00 0.00 89 1010.9
20260510165505 48 109 0.0 1.0 0.00 0.00 0.00 88 1010.9
20260510164505 49 109 0.0 2.0 0.00 0.00 0.00 88 1010.7
20260510164006 50 109 1.0 2.0 0.00 0.00 0.00 87 1010.5
20260510163005 51 141 0.0 3.0 0.00 0.00 0.00 85 1010.4
20260510162504 51 142 0.0 3.0 0.00 0.00 0.00 85 1010.3
20260510162005 52 165 1.0 3.0 0.00 0.00 0.00 85 1010.1
20260510161506 51 171 2.0 3.0 0.00 0.00 0.00 87 1010.0
20260510161005 51 152 1.0 2.0 0.00 0.00 0.00 87 1009.9
20260510160005 51 197 1.0 2.0 0.00 0.00 0.00 86 1009.8
20260510155005 52 245 0.0 1.0 0.00 0.00 0.00 85 1009.8
20260510154505 52 245 0.0 2.0 0.00 0.00 0.00 84 1009.8
20260510153505 53 94 0.0 3.0 0.00 0.00 0.00 83 1009.5
20260510152505 54 84 1.0 2.0 0.00 0.00 0.00 82 1009.3
20260510152005 54 211 1.0 2.0 0.00 0.00 0.00 82 1009.0
20260510151504 54 146 0.0 2.0 0.00 0.00 0.00 82 1008.9
20260510151005 54 127 0.0 2.0 0.00 0.00 0.00 82 1008.8
20260510150005 54 179 1.0 3.0 0.00 0.00 0.00 81 1008.7
20260510145505 54 203 1.0 3.0 0.00 0.00 0.00 81 1008.7
20260510145005 54 144 1.0 3.0 0.00 0.00 0.00 81 1008.6
20260510144505 54 210 2.0 3.0 0.00 0.00 0.00 82 1008.4
20260510144005 54 208 1.0 5.0 0.00 0.00 0.00 83 1008.4
20260510143505 54 197 2.0 5.0 0.00 0.00 0.00 83 1008.4
20260510143006 54 224 1.0 5.0 0.00 0.00 0.00 84 1008.4
20260510142504 54 210 2.0 5.0 0.00 0.00 0.00 84 1008.3
20260510142005 54 186 1.0 5.0 0.00 0.00 0.00 85 1008.3
20260510141505 54 247 1.0 5.0 0.00 0.00 0.00 85 1008.2
20260510141005 54 240 2.0 5.0 0.00 0.00 0.00 86 1008.3
20260510140004 54 253 1.0 3.0 0.00 0.00 0.00 86 1008.3
20260510135506 54 269 1.0 3.0 0.00 0.00 0.00 86 1008.2
20260510135006 54 260 1.0 3.0 0.00 0.00 0.00 86 1008.2
20260510134006 54 244 3.0 5.0 0.00 0.00 0.00 87 1007.9
20260510133505 54 250 3.0 5.0 0.00 0.00 0.00 87 1007.9
20260510133005 53 250 3.0 5.0 0.00 0.00 0.00 88 1007.9
20260510132005 53 263 0.0 7.0 0.00 0.00 0.00 89 1007.8
20260510131505 53 279 2.0 7.0 0.00 0.00 0.00 89 1007.7
20260510131004 53 270 3.0 7.0 0.00 0.00 0.00 89 1007.7
20260510130005 52 279 0.0 2.0 0.00 0.00 0.00 91 1007.8
20260510125508 52 271 0.0 2.0 0.00 0.00 0.00 90 1007.8
20260510125005 52 257 1.0 3.0 0.00 0.00 0.00 90 1007.8
20260510124505 52 168 2.0 3.0 0.00 0.00 0.00 91 1007.8
20260510124004 53 136 2.0 3.0 0.00 0.00 0.00 87 1007.7
20260510123504 54 16 1.0 2.0 0.00 0.00 0.00 89 1007.7
20260510123004 53 179 0.0 3.0 0.00 0.00 0.00 88 1007.7
20260510122505 54 179 1.0 3.0 0.00 0.00 0.00 87 1007.6
20260510121005 55 165 0.0 3.0 0.00 0.00 0.00 84 1007.3
20260510115505 57 280 2.0 5.0 0.00 0.40 0.00 84 1007.0
20260510115005 57 245 3.0 5.0 0.00 0.40 0.00 85 1006.9
20260510114505 57 228 1.0 10.0 0.00 0.40 0.00 84 1007.0
20260510114005 57 243 3.0 10.0 0.00 0.40 0.00 85 1006.9
20260510113505 56 260 5.0 10.0 0.00 0.40 0.00 85 1006.9
20260510113005 56 259 5.0 7.0 0.00 0.40 0.00 85 1006.7
20260510112505 56 270 4.0 7.0 0.00 0.40 0.00 85 1006.7
20260510112005 56 258 2.0 3.0 0.00 0.40 0.00 84 1006.7
20260510111505 56 251 1.0 3.0 0.00 0.40 0.00 84 1006.6
20260510111005 57 212 1.0 3.0 0.00 0.40 0.00 84 1006.5
20260510110005 57 206 3.0 6.0 0.00 0.40 0.00 83 1006.4
20260510105505 57 269 3.0 10.0 0.00 0.40 0.00 82 1006.4
20260510105005 57 271 5.0 10.0 0.00 0.40 0.00 82 1006.3
20260510104505 57 270 6.0 10.0 0.00 0.40 0.00 83 1006.2
20260510104005 57 266 3.0 10.0 0.00 0.40 0.00 83 1006.2
20260510102505 57 267 2.0 7.0 0.00 0.40 0.00 83 1006.2
20260510102005 57 257 2.0 3.0 0.00 0.40 0.00 83 1006.2
20260510101505 57 252 0.0 0.0 0.00 0.40 0.00 83 1006.2
20260510101005 57 245 0.0 0.0 0.00 0.40 0.00 83 1006.1
20260510100004 57 133 0.0 0.0 0.00 0.40 0.00 82 1006.0
20260510095504 57 133 0.0 2.0 0.00 0.40 0.00 82 1005.9
20260510095005 57 174 0.0 3.0 0.00 0.40 0.00 82 1005.8
20260510094504 57 228 1.0 3.0 0.00 0.40 0.00 82 1005.8
20260510094004 58 191 1.0 5.0 0.00 0.40 0.00 81 1005.6
20260510093506 58 219 0.0 5.0 0.00 0.40 0.00 81 1005.6
20260510092505 58 205 2.0 12.0 0.00 0.40 0.00 80 1005.4
20260510092005 58 254 4.0 12.0 0.00 0.40 0.00 80 1005.2
20260510091504 58 268 5.0 12.0 0.00 0.40 0.00 80 1005.2
20260510091004 58 259 5.0 14.0 0.00 0.40 0.00 80 1005.1
20260510085005 58 258 6.0 12.0 0.00 0.40 0.00 81 1004.8
20260510084505 58 249 6.0 12.0 0.00 0.40 0.00 81 1004.7
20260510084005 58 254 6.0 12.0 0.00 0.40 0.00 81 1004.6
20260510083506 58 254 6.0 12.0 0.00 0.40 0.00 80 1004.6
20260510083006 59 257 6.0 12.0 0.00 0.40 0.00 80 1004.5
20260510082505 59 266 6.0 14.0 0.00 0.40 0.00 80 1004.5
20260510082006 59 265 6.0 14.0 0.00 0.40 0.00 79 1004.5
20260510081506 59 260 8.0 14.0 0.00 0.40 0.00 79 1004.4
20260510081006 59 254 7.0 16.0 0.00 0.40 0.00 79 1004.4
20260510080007 59 257 7.0 16.0 0.00 0.40 0.00 79 1004.2
20260510075506 59 247 6.0 13.0 0.00 0.40 0.00 79 1004.2
20260510075006 59 218 5.0 13.0 0.00 0.40 0.00 79 1004.1
20260510074506 59 238 3.0 13.0 0.00 0.40 0.00 78 1004.0
20260510074006 59 241 7.0 13.0 0.00 0.40 0.00 78 1004.0
20260510073506 59 266 7.0 13.0 0.00 0.40 0.00 78 1003.7
20260510073006 59 234 5.0 15.0 0.00 0.40 0.00 77 1003.7
20260510072507 59 255 6.0 15.0 0.00 0.40 0.00 77 1003.7
20260510072006 60 240 6.0 14.0 0.00 0.40 0.00 77 1003.6
20260510071505 60 249 4.0 14.0 0.00 0.40 0.00 77 1003.6
20260510070006 60 235 7.0 15.0 0.00 0.40 0.00 76 1003.4
20260510065506 60 254 4.0 12.0 0.00 0.40 0.00 76 1003.2
20260510065006 60 237 3.0 16.0 0.00 0.40 0.00 76 1003.1
20260510064506 60 207 5.0 17.0 0.00 0.40 0.00 76 1003.1
20260510064006 60 227 9.0 23.0 0.00 0.40 0.00 76 1002.8
20260510063506 60 228 9.0 23.0 0.00 0.40 0.00 76 1002.6
20260510063006 60 228 10.0 23.0 0.00 0.40 0.00 76 1002.6
20260510062506 60 262 7.0 16.0 0.00 0.40 0.00 76 1002.6
20260510062007 60 241 5.0 12.0 0.00 0.40 0.00 76 1002.6
20260510061505 60 226 5.0 13.0 0.00 0.40 0.00 76 1002.6
20260510061005 60 174 4.0 13.0 0.00 0.40 0.00 75 1002.5
20260510060006 61 240 6.0 16.0 0.00 0.40 0.00 75 1002.4
20260510055506 61 246 6.0 16.0 0.00 0.40 0.00 76 1002.3
20260510055006 61 237 5.0 14.0 0.00 0.40 0.00 75 1002.3
20260510054006 61 271 7.0 12.0 0.00 0.40 0.00 76 1002.3
20260510053506 61 251 5.0 12.0 0.00 0.40 0.00 76 1002.4
20260510053006 61 256 6.0 12.0 0.00 0.40 0.00 76 1002.3
20260510052506 61 230 2.0 6.0 0.00 0.40 0.00 76 1002.1
20260510051005 62 260 7.0 15.0 0.00 0.40 0.00 75 1002.0
20260510050006 62 263 9.0 16.0 0.00 0.40 0.00 74 1002.0
20260510045506 62 256 5.0 16.0 0.00 0.40 0.00 74 1001.9
20260510044506 62 252 6.0 15.0 0.00 0.40 0.00 74 1001.6
20260510043506 62 254 9.0 17.0 0.00 0.40 0.00 73 1001.6
20260510043006 63 257 10.0 16.0 0.00 0.40 0.00 72 1001.5
20260510042006 64 251 7.0 15.0 0.00 0.40 0.00 70 1001.5
20260510041505 64 254 7.0 13.0 0.00 0.40 0.00 70 1001.5
20260510041006 64 275 6.0 17.0 0.00 0.40 0.00 70 1001.5
20260510040006 65 243 7.0 17.0 0.00 0.40 0.00 69 1001.5
20260510035506 65 245 6.0 14.0 0.00 0.40 0.00 70 1001.4
20260510034005 65 252 8.0 20.0 0.00 0.40 0.00 68 1001.3
20260510033506 66 244 9.0 15.0 0.00 0.40 0.00 68 1001.2
20260510033006 66 235 5.0 14.0 0.00 0.40 0.00 69 1001.4
20260510032506 66 241 7.0 20.0 0.00 0.40 0.00 68 1001.4
20260510032005 66 230 9.0 20.0 0.00 0.40 0.00 68 1001.4
20260510031006 66 229 7.0 18.0 0.00 0.40 0.00 68 1001.4
20260510030006 65 234 7.0 18.0 0.00 0.40 0.00 70 1001.3
20260510025505 65 243 6.0 18.0 0.00 0.40 0.00 70 1001.2
20260510025005 65 262 9.0 17.0 0.00 0.40 0.00 70 1001.1
20260510024506 65 265 7.0 16.0 0.00 0.40 0.00 71 1001.1
20260510024005 65 215 2.0 9.0 0.00 0.40 0.00 74 1001.3
20260510023505 64 249 5.0 12.0 0.00 0.40 0.00 73 1001.4
20260510023006 64 257 4.0 12.0 0.00 0.40 0.00 73 1001.3
20260510022506 64 276 4.0 12.0 0.00 0.40 0.00 74 1001.1
20260510022006 63 272 5.0 12.0 0.00 0.40 0.00 73 1001.2
20260510021505 63 249 4.0 13.0 0.00 0.40 0.00 74 1001.3
20260510021006 63 247 4.0 16.0 0.00 0.40 0.00 74 1001.3
20260510020005 63 258 5.0 12.0 0.00 0.40 0.00 74 1001.3
20260510015505 63 253 6.0 18.0 0.00 0.40 0.00 73 1001.2
20260510015006 63 262 8.0 18.0 0.00 0.40 0.00 72 1001.2
20260510014505 63 263 7.0 17.0 0.00 0.40 0.00 72 1001.4
20260510014005 63 251 5.0 13.0 0.00 0.40 0.00 74 1001.4
20260510013506 63 247 7.0 22.0 0.00 0.40 0.00 73 1001.5
20260510013006 63 244 9.0 22.0 0.00 0.40 0.00 73 1001.5
20260510012505 63 253 13.0 22.0 0.00 0.40 0.00 72 1001.5
20260510012006 64 247 6.0 14.0 0.00 0.40 0.00 74 1001.5
20260510010006 63 248 11.0 22.0 0.00 0.40 0.00 72 1001.5
20260510005006 64 250 14.0 23.0 0.00 0.40 0.00 71 1001.5
20260510004006 64 260 6.0 22.0 0.00 0.40 0.00 73 1001.5
20260510003506 64 257 10.0 22.0 0.00 0.40 0.00 72 1001.5
20260510003006 63 256 7.0 21.0 0.00 0.40 0.00 73 1001.5
20260510002505 64 260 10.0 15.0 0.00 0.40 0.00 72 1001.5
20260510001505 63 250 7.0 17.0 0.00 0.40 0.00 73 1001.5
20260510001005 63 249 6.0 15.0 0.00 0.40 0.00 74 1001.6
20260510000005 63 265 13.0 18.0 0.00 0.40 0.00 72 1001.9
20260509235505 63 248 5.0 17.0 0.00 0.40 0.00 74 1002.0
20260509235005 62 259 5.0 20.0 0.00 0.40 0.00 74 1002.0
20260509234505 62 236 7.0 20.0 0.00 0.40 0.00 75 1002.0
20260509234005 62 255 10.0 20.0 0.00 0.40 0.00 75 1002.0
20260509233506 62 242 9.0 16.0 0.00 0.40 0.00 76 1002.1
20260509233005 61 253 8.0 16.0 0.00 0.40 0.00 75 1002.1
20260509232005 61 240 8.0 18.0 0.00 0.40 0.00 76 1002.4
20260509231506 60 244 10.0 18.0 0.00 0.40 0.00 76 1002.5
20260509231005 60 248 8.0 15.0 0.00 0.40 0.00 76 1002.5
20260509230006 60 242 6.0 15.0 0.00 0.40 0.00 77 1002.6
20260509225506 60 245 3.0 13.0 0.00 0.40 0.00 78 1002.6
20260509225006 60 233 9.0 13.0 0.00 0.40 0.00 76 1002.6
20260509224505 60 260 6.0 13.0 0.00 0.40 0.00 78 1002.5
20260509224005 60 256 5.0 13.0 0.00 0.40 0.00 77 1002.5
20260509223005 60 225 2.0 9.0 0.00 0.40 0.00 78 1002.5
20260509222505 60 277 3.0 12.0 0.00 0.40 0.00 78 1002.5
20260509221505 60 264 4.0 14.0 0.00 0.40 0.00 78 1002.5
20260509221005 60 256 9.0 14.0 0.00 0.40 0.00 76 1002.5
20260509220005 60 243 6.0 13.0 0.00 0.40 0.00 79 1002.5
20260509215505 59 259 5.0 10.0 0.00 0.40 0.00 79 1002.5
20260509215005 59 239 3.0 9.0 0.00 0.40 0.00 81 1002.5
20260509214505 59 235 2.0 9.0 0.00 0.40 0.00 81 1002.5
20260509214005 59 218 2.0 10.0 0.00 0.40 0.00 81 1002.5
20260509213505 58 259 4.0 10.0 0.00 0.40 0.00 81 1002.5
20260509213005 58 246 4.0 10.0 0.00 0.40 0.00 83 1002.5
20260509212505 57 205 3.0 7.0 0.00 0.40 0.00 85 1002.5
20260509212005 57 309 1.0 3.0 0.00 0.40 0.00 85 1002.5
20260509211005 56 339 1.0 5.0 0.00 0.40 0.00 85 1002.5
20260509210005 55 301 2.0 3.0 0.00 0.40 0.00 86 1002.5
20260509205505 55 321 1.0 6.0 0.00 0.40 0.00 86 1002.5
20260509205006 55 271 2.0 6.0 0.00 0.40 0.00 87 1002.5
20260509204506 54 306 1.0 6.0 0.00 0.40 0.00 88 1002.5
20260509203505 53 330 4.0 8.0 0.00 0.40 0.00 89 1002.6
20260509203005 52 318 2.0 5.0 0.00 0.40 0.00 89 1002.6
20260509202506 52 315 2.0 5.0 0.00 0.40 0.00 90 1002.6
20260509201006 51 278 1.0 3.0 0.00 0.40 0.00 91 1002.6
20260509200005 50 288 1.0 2.0 0.00 0.40 0.00 92 1002.7
20260509195505 50 325 1.0 2.0 0.00 0.40 0.00 92 1002.6
20260509193506 49 265 1.0 3.0 0.00 0.40 0.00 93 1002.6
20260509193005 49 279 0.0 2.0 0.00 0.40 0.00 93 1002.6
20260509192506 48 267 1.0 2.0 0.00 0.40 0.00 92 1002.6
20260509192005 49 249 1.0 2.0 0.00 0.40 0.00 93 1002.6
20260509191505 48 222 0.0 2.0 0.00 0.40 0.00 92 1002.6
20260509191005 48 190 0.0 2.0 0.00 0.40 0.00 91 1002.6
20260509190006 49 197 1.0 2.0 0.00 0.41 0.00 90 1002.5